TimePDT,TemperatureF,Dew PointF,Humidity,Sea Level PressureIn,VisibilityMPH,Wind Direction,Wind SpeedMPH,Gust SpeedMPH,PrecipitationIn,Events,Conditions,WindDirDegrees,DateUTC
12:53 AM,82.0,23.0,11,29.63,10.0,West,17.3,25.3,N/A,,Clear,260,2013-04-30 07:53:00
1:53 AM,82.9,15.1,8,29.62,10.0,West,17.3,25.3,N/A,,Clear,260,2013-04-30 08:53:00
2:53 AM,79.0,18.0,10,29.61,10.0,West,13.8,-,N/A,,Clear,260,2013-04-30 09:53:00
3:53 AM,81.0,12.9,8,29.61,10.0,West,16.1,-,N/A,,Clear,270,2013-04-30 10:53:00
4:53 AM,80.1,17.1,9,29.62,10.0,West,13.8,-,N/A,,Clear,270,2013-04-30 11:53:00
5:53 AM,77.0,19.9,12,29.62,10.0,West,10.4,-,N/A,,Clear,260,2013-04-30 12:53:00
6:53 AM,72.0,33.1,24,29.64,10.0,SW,3.5,-,N/A,,Clear,230,2013-04-30 13:53:00
7:53 AM,77.0,34.0,21,29.65,10.0,SE,4.6,-,N/A,,Clear,130,2013-04-30 14:53:00
8:53 AM,80.1,36.0,20,29.67,10.0,SE,11.5,-,N/A,,Clear,130,2013-04-30 15:53:00
9:53 AM,87.1,35.1,16,29.67,10.0,SE,11.5,-,N/A,,Clear,140,2013-04-30 16:53:00
10:53 AM,90.0,41.0,18,29.67,10.0,ESE,11.5,-,N/A,,Clear,110,2013-04-30 17:53:00
11:53 AM,91.9,41.0,17,29.66,10.0,SE,9.2,-,N/A,,Clear,130,2013-04-30 18:53:00
12:53 PM,95.0,45.0,18,29.64,10.0,ESE,9.2,-,N/A,,Clear,110,2013-04-30 19:53:00
1:53 PM,98.1,30.9,9,29.62,10.0,South,5.8,-,N/A,,Clear,170,2013-04-30 20:53:00
2:53 PM,99.0,30.9,9,29.61,10.0,SSW,13.8,23.0,N/A,,Clear,200,2013-04-30 21:53:00
3:53 PM,97.0,39.0,13,29.58,10.0,West,15.0,19.6,N/A,,Clear,260,2013-04-30 22:53:00
4:53 PM,95.0,42.8,16,29.58,10.0,WSW,18.4,26.5,N/A,,Clear,250,2013-04-30 23:53:00
5:53 PM,91.9,46.0,21,29.58,10.0,WSW,15.0,24.2,N/A,,Clear,250,2013-05-01 00:53:00
6:53 PM,88.0,45.0,22,29.59,10.0,WSW,16.1,-,N/A,,Clear,250,2013-05-01 01:53:00
7:53 PM,84.0,45.0,25,29.61,10.0,WSW,11.5,-,N/A,,Clear,250,2013-05-01 02:53:00
8:53 PM,80.1,46.0,30,29.63,10.0,WSW,8.1,-,N/A,,Clear,240,2013-05-01 03:53:00
9:53 PM,77.0,46.9,34,29.65,10.0,WSW,10.4,-,N/A,,Clear,250,2013-05-01 04:53:00
10:53 PM,75.9,46.0,35,29.66,10.0,West,10.4,-,N/A,,Clear,270,2013-05-01 05:53:00
11:53 PM,73.9,46.0,37,29.67,10.0,West,9.2,-,N/A,,Clear,260,2013-05-01 06:53:00